User: anonymous   Login
Location: Gipe Farm
(40.9466°N, 95.5370°W)
Time: 23:31:32
(UTC-05:00)
Language:

Cosmos 2082 Rocket - Orbit

View from above orbital plane
View from above orbital plane
View from above satellite
View from above satellite

Ground track
Ground track

The orbit data is extracted from the following two-line orbital elements,

1 20625U 90046B   16207.18587037 -.00000224  00000-0 -91394-4 0  9999
2 20625  70.9995 115.4397 0016387 247.3906 218.2789 14.14598146351595
Epoch (UTC): 25 July 2016 04:27:39
Eccentricity: 0.0016387
inclination: 70.9995°
perigee height: 832 km
apogee height: 855 km
right ascension of ascending node: 115.4397°
argument of perigee: 247.3906°
revolutions per day: 14.14598146
mean anomaly at epoch: 218.2789°
orbit number at epoch: 35159

The dashed part of the orbit path shows where the satellite is in the earth's shadow,  

DLR